Date String (YYYY-MM-DD hh:mm:ss) UTC,Instrument flags,absolute air pressure of the measurement (hPa),sample flow rate (lpm),inlet stack bypass flow (lpm),air temperature of the measurement (°C),ambient temperature measured by the external sensor (°C),aerosol sample conditioner tube jacket temperature (°C),OPC LED temperature (°C),internal box temperature (°C),relative humidity of the measurement (%),span deviation,mass concentration of particles derived from Lorenz-Mie calculation of OPC scattering (μg/m³),mass concentration of particles derived from Lorenz-Mie calculation of OPC scattering (μg/m³),mass concentration of particles derived from Lorenz-Mie calculation of OPC scattering (μg/m³)
DateTimeUTC,F1_M11,P_M11,Q1_M11,Q2_M11,T1_M11,T2_M11,T3_M11,T4_M11,T5_M11,U1_M11,ZSPAN_M11,X2_M11,X0_M11,X1_M11
2024-06-12 11:00:00,SystemResetWarning,0829.0,5.00,000.00,031.2,030.5,000.0,039.5,032.8,013.1,0000.0,0004.32,0010.51,0003.81
2024-06-12 11:01:00,SystemResetWarning,0829.0,4.98,000.00,031.2,030.5,000.0,039.5,032.9,013.3,0000.0,0004.33,0010.48,0003.81
2024-06-12 11:02:00,SystemResetWarning,0828.9,5.00,000.00,031.2,030.5,000.0,039.5,032.9,013.1,0000.0,0004.35,0010.57,0003.81
2024-06-12 11:03:00,SystemResetWarning,0828.9,5.00,000.00,031.2,030.5,000.0,039.5,032.9,012.9,0000.0,0004.39,0010.59,0003.83
2024-06-12 11:04:00,SystemResetWarning,0828.9,5.00,000.00,031.2,030.5,000.0,039.5,032.9,012.9,0000.0,0004.40,0010.42,0003.84
2024-06-12 11:05:00,SystemResetWarning,0828.9,5.01,000.00,031.2,030.5,000.0,039.5,032.9,012.8,0000.0,0004.42,0009.82,0003.86
2024-06-12 11:06:00,SystemResetWarning,0828.9,5.01,000.00,031.2,030.5,000.0,039.6,032.9,013.1,0000.0,0004.44,0009.83,0003.86
2024-06-12 11:07:00,SystemResetWarning,0829.0,4.99,000.00,031.3,030.6,000.0,039.6,032.9,013.9,0000.0,0004.43,0009.56,0003.85
2024-06-12 11:08:00,SystemResetWarning,0829.0,4.99,000.00,031.3,030.6,000.0,039.6,032.9,013.4,0000.0,0004.39,0009.10,0003.85
2024-06-12 11:09:00,SystemResetWarning,0829.0,5.00,000.00,031.3,030.6,000.0,039.6,032.9,013.0,0000.0,0004.39,0009.15,0003.85
2024-06-12 11:10:00,SystemResetWarning,0829.0,4.99,000.00,031.1,028.9,000.0,039.6,032.0,013.0,0000.0,0004.39,0008.74,0003.85
2024-06-12 11:11:00,SystemResetWarning,0829.0,5.02,000.00,030.6,026.8,000.0,039.6,031.0,013.6,0000.0,0004.39,0009.05,0003.86
2024-06-12 11:12:00,SystemResetWarning,0829.0,5.00,000.00,030.3,026.8,000.0,039.5,030.9,013.7,0000.0,0004.39,0009.80,0003.86
2024-06-12 11:13:00,SystemResetWarning,0828.9,5.00,000.00,030.2,027.2,000.0,039.3,031.1,013.7,0000.0,0004.38,0009.52,0003.87
2024-06-12 11:14:00,SystemResetWarning,0829.0,5.00,000.00,030.2,027.6,000.0,039.2,031.3,013.7,0000.0,0004.37,0009.54,0003.86
2024-06-12 11:15:00,SystemResetWarning,0829.0,5.00,000.00,030.2,028.0,000.0,039.1,031.5,013.7,0000.0,0004.35,0010.49,0003.85
2024-06-12 11:16:00,SystemResetWarning,0829.1,5.00,000.00,030.2,028.4,000.0,039.0,031.6,013.6,0000.0,0004.34,0010.55,0003.84
2024-06-12 11:17:00,SystemResetWarning,0829.1,5.00,000.00,030.2,028.6,000.0,039.0,031.7,013.7,0000.0,0004.35,0010.66,0003.83
2024-06-12 11:18:00,SystemResetWarning,0829.1,5.01,000.00,030.2,028.9,000.0,038.9,031.8,013.7,0000.0,0004.35,0010.70,0003.83
2024-06-12 11:19:00,SystemResetWarning,0829.3,5.01,000.00,030.2,029.1,000.0,038.9,031.9,013.6,0000.0,0004.34,0011.08,0003.82
2024-06-12 11:20:00,SystemResetWarning,0829.3,5.00,000.00,030.3,029.2,000.0,038.9,031.9,015.3,0000.0,0004.33,0011.43,0003.81
2024-06-12 11:21:00,SystemResetWarning,0829.4,5.01,000.00,030.3,029.3,000.0,038.8,032.0,016.3,0000.0,0004.32,0011.41,0003.82
2024-06-12 11:22:00,SystemResetWarning,0829.4,5.01,000.00,030.3,029.4,000.0,038.8,032.0,015.5,0000.0,0004.32,0010.73,0003.83
2024-06-12 11:23:00,SystemResetWarning,0829.3,5.00,000.00,030.4,029.5,000.0,038.8,032.0,014.7,0000.0,0004.34,0010.24,0003.85
2024-06-12 11:24:00,SystemResetWarning,0829.2,4.99,000.00,030.4,029.6,000.0,038.8,032.1,014.7,0000.0,0004.32,0010.18,0003.84
2024-06-12 11:25:00,SystemResetWarning,0829.2,4.99,000.00,030.4,029.7,000.0,038.8,032.1,014.3,0000.0,0004.32,0010.65,0003.85
2024-06-12 11:26:00,SystemResetWarning,0829.2,5.01,000.00,030.5,029.7,000.0,038.8,032.1,014.1,0000.0,0004.33,0010.11,0003.87
2024-06-12 11:27:00,SystemResetWarning,0829.2,5.01,000.00,030.5,029.8,000.0,038.8,032.2,013.9,0000.0,0004.36,0010.08,0003.88
2024-06-12 11:28:00,SystemResetWarning,0829.2,4.99,000.00,030.5,029.8,000.0,038.8,032.2,013.9,0000.0,0004.35,0010.68,0003.89
2024-06-12 11:29:00,SystemResetWarning,0829.3,4.99,000.00,030.5,029.9,000.0,038.9,032.2,014.2,0000.0,0004.39,0011.20,0003.89
2024-06-12 11:30:00,SystemResetWarning,0829.4,4.99,000.00,030.6,029.9,000.0,038.9,032.3,014.6,0000.0,0004.39,0010.70,0003.89
2024-06-12 11:31:00,SystemResetWarning,0829.4,5.00,000.00,030.6,029.9,000.0,038.9,032.3,014.9,0000.0,0004.40,0010.42,0003.90
2024-06-12 11:32:00,SystemResetWarning,0829.3,5.00,000.00,030.6,029.9,000.0,038.9,032.3,014.5,0000.0,0004.40,0010.29,0003.90
2024-06-12 11:33:00,SystemResetWarning,0829.4,5.00,000.00,030.6,030.0,000.0,038.9,032.3,014.3,0000.0,0004.40,0010.34,0003.89
2024-06-12 11:34:00,SystemResetWarning,0829.4,5.00,000.00,030.7,030.0,000.0,038.9,032.3,014.2,0000.0,0004.39,0010.63,0003.88
2024-06-12 11:35:00,SystemResetWarning,0829.4,5.00,000.00,030.7,030.0,000.0,038.9,032.4,013.9,0000.0,0004.38,0010.72,0003.87
2024-06-12 11:36:00,SystemResetWarning,0829.4,5.00,000.00,030.7,030.0,000.0,039.0,032.4,013.7,0000.0,0004.40,0010.57,0003.87
2024-06-12 11:37:00,SystemResetWarning,0829.3,5.00,000.00,030.7,030.1,000.0,039.0,032.4,013.6,0000.0,0004.39,0011.10,0003.86
2024-06-12 11:38:00,SystemResetWarning,0829.2,4.99,000.00,030.7,030.1,000.0,039.0,032.4,013.6,0000.0,0004.37,0011.10,0003.86
2024-06-12 11:39:00,SystemResetWarning,0829.2,5.00,000.00,030.8,030.1,000.0,039.0,032.4,013.7,0000.0,0004.37,0010.72,0003.88
2024-06-12 11:40:00,SystemResetWarning,0829.2,5.01,000.00,030.8,030.1,000.0,039.0,032.4,013.6,0000.0,0004.37,0010.17,0003.88
2024-06-12 11:41:00,SystemResetWarning,0829.3,5.00,000.00,030.8,030.1,000.0,039.1,032.5,013.6,0000.0,0004.34,0010.17,0003.90
2024-06-12 11:42:00,SystemResetWarning,0829.3,5.00,000.00,030.8,030.1,000.0,039.1,032.5,013.6,0000.0,0004.33,0010.61,0003.90
2024-06-12 11:43:00,SystemResetWarning,0829.4,4.99,000.00,030.8,030.2,000.0,039.1,032.5,013.6,0000.0,0004.33,0011.15,0003.90
2024-06-12 11:44:00,SystemResetWarning,0829.3,5.00,000.00,030.8,030.2,000.0,039.1,032.5,013.6,0000.0,0004.33,0011.80,0003.90
2024-06-12 11:45:00,SystemResetWarning,0829.3,4.99,000.00,030.8,030.2,000.0,039.1,032.5,014.2,0000.0,0004.35,0011.77,0003.89
2024-06-12 11:46:00,SystemResetWarning,0829.3,5.00,000.00,030.9,030.2,000.0,039.1,032.6,015.0,0000.0,0004.36,0011.31,0003.90
2024-06-12 11:47:00,SystemResetWarning,0829.3,5.00,000.00,030.9,030.2,000.0,039.1,032.5,014.6,0000.0,0004.39,0011.17,0003.93
2024-06-12 11:48:00,SystemResetWarning,0829.3,5.00,000.00,030.9,030.2,000.0,039.2,032.5,014.3,0000.0,0004.40,0010.79,0003.94
2024-06-12 11:49:00,SystemResetWarning,0829.3,5.00,000.00,030.9,030.2,000.0,039.2,032.5,013.9,0000.0,0004.44,0010.25,0003.95
2024-06-12 11:50:00,SystemResetWarning,0829.3,5.00,000.00,030.9,030.2,000.0,039.2,032.5,013.7,0000.0,0004.45,0010.52,0003.96
2024-06-12 11:51:00,SystemResetWarning,0829.3,5.00,000.00,030.9,030.2,000.0,039.2,032.5,013.6,0000.0,0004.45,0010.26,0003.97
2024-06-12 11:52:00,SystemResetWarning,0829.3,5.00,000.00,030.9,030.2,000.0,039.2,032.5,013.7,0000.0,0004.50,0010.41,0003.98
2024-06-12 11:53:00,SystemResetWarning,0829.3,5.00,000.00,030.9,030.3,000.0,039.2,032.5,013.6,0000.0,0004.52,0010.09,0003.98
2024-06-12 11:54:00,SystemResetWarning,0829.3,5.00,000.00,030.9,030.3,000.0,039.2,032.6,013.7,0000.0,0004.54,0009.42,0003.99
2024-06-12 11:55:00,SystemResetWarning,0829.2,5.01,000.00,031.0,030.3,000.0,039.2,032.6,013.7,0000.0,0004.54,0008.92,0004.00
2024-06-12 11:56:00,SystemResetWarning,0829.3,5.00,000.00,031.0,030.3,000.0,039.3,032.6,013.7,0000.0,0004.56,0008.76,0004.00
2024-06-12 11:57:00,SystemResetWarning,0829.3,5.00,000.00,031.0,030.3,000.0,039.3,032.7,013.7,0000.0,0004.59,0008.86,0004.01
2024-06-12 11:58:00,SystemResetWarning,0829.3,4.99,000.00,031.0,030.3,000.0,039.3,032.7,013.7,0000.0,0004.59,0008.80,0004.00
2024-06-12 11:59:00,SystemResetWarning,0829.4,5.00,000.00,031.0,030.3,000.0,039.3,032.7,013.7,0000.0,0004.56,0008.38,0003.98
